Location: Goettingen
(51.5300°N, 9.9433°E)
Time: 08:59:24
(UTC+02:00)

ISS - Pass Details

Date: 18 March 2018
Orbit: 403 x 408 km, 51.6° (Epoch: 24 June)

Event Time Altitude Azimuth Distance (km) Brightness Sun altitude
Exits shadow 03:45:29 13° 121° (ESE) 1,311 -1.0 -24.8°
Drops below altitude 10° 03:45:54 10° 120° (ESE) 1,477 -0.7 -24.8°
Enters shadow 04:46:41 -59° 305° (NW) 11,411 3.5 -16.3°
